Location: Chèvreville
(49.1099°N, 2.8495°E)
Time: 07:04:39
(UTC+00:00)

COSMOS 2455 - Visible Passes

Search period start: 24 September 2023 00:00
Search period end: 04 October 2023 00:00
Orbit: 901 x 908 km, 67.1° (Epoch: 24 September)

Date Brightness Start Highest point End Pass type
(mag) Time Alt. Az. Time Alt. Az. Time Alt. Az.
24 Sep 3.6 18:42:42 10° NNW 18:48:16 37° NE 18:52:30 16° E visible
24 Sep 3.2 20:28:36 10° NW 20:34:30 57° WSW 20:35:39 49° SSW visible
25 Sep 3.3 18:46:35 10° NNW 18:52:22 44° NE 18:56:34 18° ESE visible
25 Sep 3.6 20:32:39 10° NW 20:38:20 44° WSW 20:39:43 38° SSW visible
26 Sep 3.1 18:50:29 10° NNW 18:56:24 55° NE 19:00:43 19° ESE visible
26 Sep 4.1 20:36:47 10° NW 20:42:06 34° WSW 20:43:52 28° SW visible
27 Sep 2.9 18:54:22 10° NNW 19:00:25 69° NE 19:04:56 18° SE visible
27 Sep 4.5 20:41:01 10° NW 20:45:51 26° WSW 20:48:06 20° SW visible
28 Sep 2.8 18:58:18 10° NW 19:04:22 86° NE 19:09:16 16° SE visible
28 Sep 5.0 20:45:26 10° WNW 20:49:33 19° WSW 20:52:26 14° SW visible
29 Sep 3.0 19:02:16 10° NW 19:08:17 75° WSW 19:13:42 13° SSE visible
29 Sep 5.3 20:50:10 10° WNW 20:53:12 14° WSW 20:56:14 10° SW visible
30 Sep 3.4 19:06:15 10° NW 19:12:09 58° WSW 19:18:01 10° SSE visible
30 Sep 5.6 20:56:34 10° W 20:56:49 10° W 20:57:03 10° W visible
01 Oct 3.9 19:10:18 10° NW 19:15:59 45° WSW 19:21:38 10° S visible
02 Oct 4.4 19:14:25 10° NW 19:19:46 34° WSW 19:25:05 10° S visible
03 Oct 4.8 19:18:39 10° NW 19:23:31 26° WSW 19:28:21 10° SSW visible
